Location: Hilton Head Island
(32.2163°N, 80.7526°W)
Time: 15:16:54
(UTC-05:00)

Explorer 11/Cluster Stage 4 - Pass Details

Date: 17 February 2026
Orbit: 463 x 1176 km, 28.8° (Epoch: 6 March)

Event Time Altitude Azimuth Distance (km) Brightness Sun altitude
Rises 13:30:28 0° 241° (WSW) 2,792 9.9 44.2°
Reaches altitude 10° 13:33:03 10° 231° (SW) 1,796 9.3 44.0°
Maximum altitude 13:36:42 32° 167° (SSE) 866 8.1 43.7°
Drops below altitude 10° 13:40:00 10° 103° (ESE) 1,624 8.3 43.5°
Sets 13:42:14 0° 93° (E) 2,477 9.0 43.3°
